TIMESTAMP,CO2_1_1_1,H2O_1_1_1,TAU_1_1_1,TAU_SSITC_TEST_1_1_1,H_1_1_1,H_SSITC_TEST_1_1_1,LE_1_1_1,LE_SSITC_TEST_1_1_1,FC_1_1_1,FC_SSITC_TEST_1_1_1,WD_0_0_1,WS_0_0_1,WS_MAX_0_0_1,U_SIGMA_0_0_1,V_SIGMA_0_0_1,W_SIGMA_0_0_1,USTAR_0_0_1,MO_LENGTH_0_0_1,ZL_0_0_1,FETCH_MAX_0_0_1,FETCH_70_0_0_1,FETCH_80_0_0_1,FETCH_90_0_0_1,PA_0_0_1,RH_0_0_1,TA_0_0_1,VPD_0_0_1,T_SONIC_0_0_1,T_SONIC_SIGMA_0_0_1
[yyyymmddHHMMSS],[mmolCO2 mol-1],[mmolH2O mol-1],[kg m-1 s-2],[#],[W m-2],[#],[W m-2],[#],[umolCO2 m-2 s-1],[#],[Decimal degrees],[m s-1],[m s-1],[m s-1],[m s-1],[m s-1],[m s-1],[m],[#],[m],[m],[m],[m],[kPa],[%],[deg C],[hPa],[deg C],[deg C]
20220418003000,419.38308123428368,3.2371218503356105,0.22549222758508172,0,-11.150324424238413,0,11.138202457819309,0,0.63483011231456610,0,135.29171734551102,1.8960762316810713,5.4463732402629965,0.81982342892354199,0.62174774850733316,0.50258752195946022,0.43524466361085035,617.94320265550891,3.0747162390249841E-002,111.60208345644995,204.04420221731928,244.18879643772541,305.69539664333115,94.349068830078124,41.429310344827584,2.6527586206896672,4.3190256047958755,2.1915098783705389,0.11232419787570187
20220418010000,419.63103938463058,3.2677431386452551,0.11295834246332781,1,-12.631427471524292,0,3.5228359834365275,0,0.40266893099748319,0,130.68478804676602,1.7602335320625029,3.7252154027130318,0.57832387906842198,0.47801027795613499,0.34671730002526074,0.30790607541797482,193.09468334329898,9.8397323380573345E-002,113.86994129905798,208.19056964976798,249.15093925734774,311.90741062421068,94.328481092551883,42.799999999999997,2.3246666666666442,4.1205908311055586,1.8788637142920379,0.10967701444259229
20220418013000,419.95322152814089,3.3481768538834222,6.3832663494807429E-002,0,-11.033911616663286,0,2.0374596401053400,1,0.32747225314819839,1,105.76951356168662,1.7827727275499450,3.4202895644857434,0.49917737135302448,0.38506660747333749,0.29294174757670632,0.23134786152705664,93.747200950762931,0.20267271776977119,103.66741681238408,189.53710095983621,226.82750139787882,283.96111541965797,94.304184888020828,44.957666666666668,1.9726666666666688,3.8667750507498604,1.5341515960693641,0.17549479445624050
20220418020000,420.15628907021221,3.4817061627457013,0.22022902759496552,0,-26.757391529769240,0,-2.6657549211983449,2,1.1314387149825540,0,116.16242897517370,2.4345921323362969,6.3600051092714365,0.88588783533488846,0.76121966636121052,0.56300634889564660,0.42956243203673583,247.49427205324432,7.6769453459967205E-002,100.84753794858570,184.38146304257683,220.65751957921671,276.23703033937028,94.313517023654512,47.371333333333332,1.7896666666666761,3.6491296568053047,1.3881841269599136,0.13025153190135533
20220418023000,420.33990824310098,3.5336470654782461,0.28178364095748032,0,-14.122596263606438,0,8.4107239264308369,0,0.84080422535601795,0,123.06827562713215,2.4256702294382837,6.1080881696288811,0.93392239804472221,0.79350890732629398,0.58328254097573629,0.48583359057693720,678.45633763467106,2.8004749821101894E-002,108.17869772234049,197.78516126248712,236.69832299615675,296.31821274640066,94.325831690755209,48.238333333333337,1.7450000000000045,3.5775544354987772,1.3040993737115514,0.12231872228988090
20220418030000,420.33117164491046,3.7027107250033491,0.56755758234404685,0,-37.344147496134106,1,28.977537368723016,1,2.1079983033185150,0,126.57890928393583,3.0074633928745174,9.4259342209107544,1.4298346856106567,1.3921700884632335,0.88694441888636932,0.68909164756126939,732.12294696847118,2.5951925258829830E-002,102.31972501786908,187.07309053521050,223.87871023664536,280.26957880208226,94.323492907060952,51.831000000000003,1.3946666666666943,3.2466403398006678,0.94497241503290752,0.14141492817024576
20220418033000,420.04050738660868,3.8687226323756794,0.77008894916970572,0,-28.425119804413836,1,26.108912198802791,1,2.0403746508108287,0,114.52082225114155,3.0742761549729227,9.6817983116143314,1.6044404987674228,1.5429876769211663,0.92055961874747960,0.80215306146067544,1516.9388769911532,1.2525224508509191E-002,112.15513434208917,205.05535562280093,245.39888881190370,307.21028870101753,94.297441746527781,55.935000000000002,0.94133333333331848,2.8747105056798667,0.47524319881858901,0.18920212064648445
20220418040000,420.17819024100265,4.0303475959112935,0.23518230921357158,0,-0.62423627143525839,2,0.44479411985480699,2,0.36905079826810161,0,98.126845108509698,2.6172389118722066,7.3325203334056734,1.0089060768459974,0.91355238232307945,0.64201894972127171,0.44283714676764391,11621.803364187212,1.6348581545054211E-003,93.027608708943205,170.08413835399799,203.54727351466519,254.81703264221136,94.292602550347226,60.815666666666665,0.34933333333333394,2.4492527015677727,-6.6389816284129211E-002,0.12222359980145893
20220418043000,420.46784554188662,4.1745898277722739,0.25663219631664391,1,-7.5206665711612910,0,4.6597108150667079,0,0.69075367902899065,0,97.534270109124918,2.1200228639774745,5.2507423758749123,0.82442165143631319,0.62271198817766515,0.49558057199668953,0.46233239187539166,1097.7585292601641,1.7307995787384206E-002,118.44778379688083,216.56032576376839,259.16739966026711,324.44683045223519,94.293099124892336,64.468666666666664,3.0000000000029559E-002,2.1700663685810708,-0.35468885205955303,7.6310757350004810E-002
20220418050000,420.71485347581404,4.1646345479000324,0.35095707889066063,0,-5.9254637452898331,0,5.3811115354335870,1,1.2016413034105116,0,113.88365351981773,2.3877555017380714,8.7739936482451313,1.0858348500306940,0.98102255136569039,0.60320651583913432,0.54065870831272322,2227.7199995677729,8.5288995042852884E-003,114.71511438507660,209.73581560514046,251.00020400460474,314.22247064603863,94.267043681108305,64.661000000000001,-4.7666666666657420E-002,2.1461748599019739,-0.41821936126041237,9.3749796896716059E-002
20220418053000,420.59805576023359,4.4812656159688702,0.44771336945020962,0,2.6556165490597063,2,2.4587327035822617,2,1.3488757489068612,0,134.08000522777013,2.6579080855256065,8.9351823024281973,1.3859050981038168,1.0327736929152314,0.77326740692840523,0.60999261505645630,-7138.5252667851519,-2.6616141695827724E-003,103.57401158123979,189.36632640723391,226.62312787484319,283.70526402066184,94.257434641927091,72.960666666666668,-0.70066666666667743,1.5658132628615515,-1.1371224424574393,0.33801689119026918
20220418060000,420.45707838336131,4.4758280207826839,0.76261621808276869,0,-28.635542698670587,1,45.364867202187781,1,1.8868032179085790,1,133.50756185508354,3.2308119223503384,9.8707211772093686,1.7344500571097348,1.2091159718438689,0.93984830661112795,0.79598972224316911,1470.7422267363006,1.2918647234439294E-002,109.63132357418286,200.44102461090833,239.87671310725295,300.29718000400203,94.233341780704762,73.694666666666663,-0.85766666666665969,1.5059210828094347,-1.2155833801415383,0.13953193518390994
20220418063000,420.83929977907400,4.7217431904931644,0.51757907942901704,0,-6.3619698943652789,2,14.941276311718438,2,1.1095815543380589,1,127.72583335704681,3.0637473742616379,11.808001443464875,1.3811129941272664,1.0167365209623485,0.76842646296519268,0.65512368414623534,3690.3830732166866,5.1485170029892955E-003,110.21271221517937,201.50398847104663,241.14880936308052,301.88969356386502,94.221032496527783,81.149333333333331,-1.4440000000000168,1.0337331857992069,-1.8537494617037282,0.20373336353646954
20220418070000,420.84111820095688,5.0023324444187454,0.35976255490110554,0,12.437409943690396,0,2.4861953815665854,1,1.1784837781099786,0,121.40177137783922,2.4726004798667054,6.9117612531517691,1.2319608462910041,0.87304013305252970,0.66049542324393518,0.54587823251958967,-1091.9121689487210,-1.7400666958673934E-002,107.50673465811543,196.55659846945636,235.22804711221457,294.47760180898837,94.196581965494786,88.573333333333338,-1.8523333333333198,0.60805203122258777,-2.1742093327840166,5.4050405311585739E-002
20220418073000,420.55584543142817,5.0823213368428330,0.33262665730766289,0,5.4373529826346347,0,1.1159861485558831,0,0.60335188517054295,0,125.00856257961664,2.7746012065605430,7.1465094036305192,1.1837473910595955,0.98805475556435984,0.68033027152375991,0.52485477013339954,-2219.4338904887904,-8.5607415843395960E-003,101.74436891277654,186.02115607468332,222.61981335520437,278.69358929265650,94.159252178602415,90.953333333333333,-2.0020000000000095,0.47611467633776838,-2.3180557225545044,4.2937457020522214E-002
20220418080000,420.61976488026983,5.1189071077736115,0.41666780439186463,0,5.8317357618448922,0,4.3466373031536065,1,1.0968210730408949,0,125.67198673232326,2.7121441624609659,7.3720999081435439,1.2820421284247294,0.88911721591972503,0.68080858086506535,0.58748923669894204,-2901.0854316626146,-6.5492728316901318E-003,111.28453477311831,203.46362194723099,243.49399013669975,304.82558160316205,94.111945392795135,92.136666666666670,-2.0866666666666447,0.41125639909070516,-2.3953980907863865,3.6045735293141964E-002
20220418083000,420.77175568297565,5.1248424156417736,0.63669763948978397,0,-2.8068745577916299,2,1.4658336535126284,0,1.4269256412689559,1,120.00444172954587,2.7440386392785117,8.5584913783492595,1.4984209224709915,1.1204636435937350,0.77390262190457748,0.72625058591180625,11383.104248543310,1.6691404721547217E-003,119.00769455474705,217.58402120352500,260.39250164619227,325.98051276272338,94.071199201822921,92.883333333333340,-2.1859999999999786,0.36948133775390546,-2.5033675062391012,7.6245112756553879E-002
20220418090000,421.20452215587022,5.0413488898211103,0.54477841746376243,0,5.8455551238400556,1,1.8623240220121662,1,0.37148569780314478,0,121.13340360756760,3.3608240880128997,8.4631810698927339,1.4731130679081579,1.1243864419524574,0.90980299051917835,0.67171250663683013,-4322.8029971096730,-4.3952962956451732E-003,98.229913000990436,179.59560978971481,214.93007555951721,269.06695006993812,94.017716568909094,92.703333333333333,-2.3893333333333544,0.37316601866822680,-2.7117432269906203,6.7177796762471043E-002
20220418093000,421.52559143905000,5.0136234746459278,0.53099277092855679,0,-0.46054596981381374,1,-0.12920246863365029,0,0.73838122953179675,0,114.17377863273157,3.1370703042850323,8.0147037475437770,1.2645422139339637,1.0441408460714314,0.77516685113778860,0.66318680245225070,52783.520684747768,3.5996083159133045E-004,110.52167186775628,202.06886525358445,241.82482260023497,302.73598191813346,93.964805236111104,93.013333333333335,-2.5163333333333071,0.35396329349308359,-2.8387523668076824,4.5836842574536574E-002
20220418100000,421.83325832681624,4.9643362267746252,0.45119790829918566,0,-0.21099703790208191,0,-0.29323155553418573,2,0.95229744812196426,0,120.34292141216034,2.8863852717582441,8.8480129526167559,1.3700278674537945,1.0859258741939526,0.72946619388963752,0.61137516618039511,90228.690202325539,2.1057603692788946E-004,108.71688466401497,198.76913863778944,237.87589260306535,297.79239015875731,93.915698672526034,92.706666666666663,-2.6120000000000232,0.36688584627366255,-2.9260863638983778,4.0296595465942754E-002
20220418103000,421.89828398118965,4.9392345407114240,0.62993382550173449,0,-0.74142847878867479,0,-0.23013778795816950,2,0.91889605852055090,0,123.59232959161081,3.1366936542324448,8.6073624395427526,1.5157724960067582,1.0318493965502542,0.78159213608535127,0.72249229544548388,42362.028619950106,4.4851487567930306E-004,117.58104917369781,214.97565844175983,257.27095760550424,322.07271003967287,93.870511595031459,92.543333333333337,-2.6630000000000109,0.37368434520659377,-2.9916976008791494,4.2507819835069724E-002
20220418110000,422.04427401028988,4.9667160278488227,0.83592820411699043,0,-2.7168247421153966,1,-0.23842193541122761,2,0.63559428082178315,0,122.86233471180330,3.1051759339158074,9.4492721961555279,1.6373972623497939,1.0669363506837140,0.84648810565303068,0.83236182682299875,17672.804880176951,1.0750981595067416E-003,123.54009629953430,225.87069712839147,270.30953628169470,338.39546332823261,93.834983351335012,93.390000000000001,-2.7160000000000082,0.32995269088396412,-3.0465349835431539,4.0292635316454294E-002
20220418113000,422.19343193327467,4.9949792554788237,0.44109532801548362,0,-3.8296240471000966,0,0.87406159294850294,1,0.74344809043246673,0,121.04188274756828,3.3170416865517853,8.1981414826873618,1.3726631268320137,1.0547526868234900,0.74780047417975326,0.60470533920768776,4806.2394962819671,3.9531945952127664E-003,105.64801787409358,193.15827138095111,231.16111753212289,289.38628857413369,93.804016319994318,94.099999999999994,-2.7459999999999809,0.29385561251237508,-3.0650551742279504,3.6614477672484810E-002
20220418120000,422.33882236838252,5.0163426197433587,0.48445614118873243,0,-5.1715745411608500,0,1.0533307297103316,0,0.71662794721256651,0,117.60230844804570,2.7377223835542979,7.9131407849795483,1.3176054917095725,0.93543297430339989,0.71317085304866701,0.63385332871043809,4097.9859065934415,4.6364239490013885E-003,113.94389255418004,208.32577612967424,249.31274688157870,312.10997456895672,93.772323805121530,94.393333333333331,-2.7350000000000136,0.27947422681438755,-3.0501850374009791,3.6265059529403322E-002
20220418123000,422.23136704858280,5.0475099939525334,0.49946962534631595,0,3.2418529850258548,1,1.8181148533244218,1,1.2043729605175355,0,114.66275392489150,3.0047343837025235,7.8726772110537633,1.2440722621616700,1.0294868700690571,0.78375603565504615,0.64384161823683461,-6849.6361426324793,-2.7738699697846788E-003,106.98759331065006,195.60744251464902,234.09214985212355,293.05559322982674,93.740275985677087,94.193333333333328,-2.6276666666666415,0.29176058727255622,-2.9539945237901293,5.6511840150673946E-002
20220418130000,422.05687718023972,5.0948709603132771,0.43754491852577537,0,13.474463420857544,0,4.2320538158591345,0,0.94391617914177917,0,118.60392842176564,2.6259618526196191,7.8141523967531077,1.2122157430375318,1.0983964652031775,0.76311247434726714,0.60296151269881570,-1353.2165235381508,-1.4040620750271484E-002,103.70882909198821,189.61281581472173,226.91811274133300,284.07455006932946,93.704580231119792,93.583333333333329,-2.4193333333333271,0.32743225316007168,-2.7670211452907552,9.0007708062101469E-002
20220418133000,422.19588824739287,5.1058506861902337,0.54575807161916956,0,23.247295119705683,0,6.6428411048052611,0,0.53475226891928884,0,118.94090054122364,2.9092154691384868,8.0180646793712906,1.3406005362660876,1.0777434513014130,0.77693770210857882,0.67383689436393868,-1094.4877872341235,-1.7359718602264936E-002,111.73513839602275,204.28746908255482,244.47992474418805,306.05985473648076,93.676440617404509,91.953333333333333,-2.1569999999999823,0.41866196177072257,-2.5264420471191329,9.3157747573960004E-002
20220418140000,422.68818196022283,5.1317958036202747,0.42239862376728410,0,19.334279577957179,0,7.4962476668743241,1,0.27510990374226552,0,121.70203590933011,2.6584054106197388,6.6028857814791149,1.2241635353216742,0.88721827987900392,0.69531773437851774,0.59299915057629471,-896.72823528684034,-2.1188136218240509E-002,110.24312405363628,201.55959101110426,241.21535140244262,301.97299630098075,93.647849846354163,91.799999999999997,-2.0699999999999932,0.42939286940553473,-2.4673559087117383,8.7547183811728033E-002
20220418143000,422.79884182593327,5.2238190882012114,0.41471260873278526,0,36.386130147369371,0,18.354846677664053,0,0.46067236793687161,0,118.28897008129168,2.2977951848169731,6.5824400655603670,1.2091627236220119,0.86871329521678409,0.61950336045630638,0.58790495236765272,-464.24955044381147,-4.0926264725160109E-002,120.07861262360431,219.54200098519604,262.73570336983857,328.91392326629682,93.627205528461985,91.843333333333334,-1.8386666666666542,0.43448195675675721,-2.2703733799389738,0.11807110438331549
20220418150000,422.62720186026684,5.3398161553008103,0.54687624697297788,0,54.754640811683615,0,40.376338478258624,1,1.0603573862456761,0,117.99508782358731,1.5771103457925411,5.7726001056621650,1.2051655860818880,0.75990959389668478,0.61857927683872227,0.67530604617426526,-467.57432672628602,-4.0635250726934025E-002,134.31951564172908,245.57891360539270,293.89523785594207,367.92196291802662,93.625605821397571,92.939999999999998,-1.7019999999999982,0.37987390220915246,-2.1037808837890566,0.13893658494558359
20220418153000,422.23654377223551,5.4572846637025840,0.50771018716863392,0,66.023354930222240,0,30.973364533338398,0,1.2237276005914566,0,127.99551278444162,1.8022577262805415,6.2779085475506156,1.2009526559669816,0.83224040989082204,0.69230235456678646,0.65111854468531216,-347.61478860266487,-5.4658203916973236E-002,119.21922784885206,217.97077153023284,260.85534300984983,326.55993522726840,93.636331299262153,92.313333333333333,-1.3126666666666438,0.42560928321086694,-1.7727158601549036,0.17573582937330737
20220418160000,421.89597830181162,5.5192481543547869,0.56590099211811795,0,98.628133536092520,1,58.228402573158696,1,1.1553989080548785,1,117.31889565870659,2.0296840301973558,6.9263033396952602,1.2910958279516060,0.91816394716276450,0.71806896153752686,0.68807955267867149,-274.61964734094551,-6.9186601118932836E-002,121.01324249849492,221.25080248140597,264.78070232681000,331.47401929202096,93.634411127387153,89.936666666666667,-0.80299999999999727,0.57841154786842597,-1.3427704645791891,0.24806667432332535
20220418163000,422.02232202106791,5.4989406201540962,0.42775737189549140,0,58.822170333977972,0,37.229909935442940,0,0.36663777474767617,0,123.20691703403563,2.2022688403463002,6.3941936788887732,1.1824684456448629,0.88022657777472169,0.64686168566354563,0.59816695742601866,-302.51643951081229,-6.2806504105113001E-002,117.61526529799784,215.03821642965340,257.34582353947980,322.16643330509538,93.636829730468747,89.916666666666671,-0.85000000000002274,0.57757200699619149,-1.3798118726941766,0.19837251138051820
20220418170000,421.89751791102481,5.6531343623155337,0.31416780034098596,0,87.960264877190468,0,49.927510708166558,1,0.46264437993821422,0,133.36706799090709,1.7815734901139566,5.2821200973866613,1.0250767327099393,0.85345144562519559,0.58359021670592015,0.51300508668242473,-127.60849823969070,-0.14889290495615545,112.94469440349268,206.49892323231248,247.12647054817711,309.37301603252536,93.626385123046873,90.083333333333329,-0.49833333333333485,0.58280773929762175,-1.0245240308972825,0.25513354051920567
20220418173000,422.20769060195789,5.7690934192195416,0.29872904070540512,1,102.95308928346060,0,55.013233201034438,0,0.20715789245721095,1,138.55996105622691,1.4596299773237542,5.3949299503992787,0.88588802869059602,0.78960231426618166,0.56530681993405907,0.50058650759216072,-101.28409551775162,-0.18759115044543151,113.60850156090893,207.71257442650369,248.57890105678385,311.19128667762698,93.605893814887153,89.893333333333331,-0.19366666666667243,0.60730618322500163,-0.78465534634057121,0.24791273460531374
20220418180000,422.57778462666892,5.7258141287458209,0.18976674250943040,1,96.643219159864529,0,68.118557677920805,1,-0.40807095681210204,2,143.05256192625654,0.85830560713701631,3.0452064727984691,0.67934247845201989,0.63964979741502048,0.54165575317254944,0.39919672875903467,-54.711688592293235,-0.34727496973428024,98.090238513795910,179.34024028023035,214.62446347894706,268.68436001031301,93.590501970052074,87.553333333333327,6.3333333333332575E-002,0.76201913222262985,-0.55695282999670326,0.24330797784050281
20220418183000,422.83313059767221,5.7908611601477400,0.13779820133890008,1,75.961048567522170,0,51.439220497767209,0,7.1336292441737711E-002,2,192.05956686535134,0.67455632183355074,2.7269464167667072,0.60316004704614434,0.71770630168282035,0.47728626546366953,0.34026059024595395,-43.104141979923071,-0.44079290590796977,95.517087368637434,174.63569932241455,208.99432950896795,261.63610037590024,93.584196221556184,87.793333333333337,0.18033333333335122,0.75369857312835276,-0.34016583916024956,0.21871289885012796
20220418190000,422.75616215381740,5.8043905407356995,0.18678085829547272,1,72.353554638573428,0,64.053820498983256,1,-0.23778804786069821,1,242.44173617845172,1.0608605266792694,3.4314567882644775,0.74181433056884827,0.55409515485900906,0.44221459478069075,0.39621329511934694,-71.448783648588943,-0.26592475098594959,114.68105454640065,209.67354335721240,250.92568002838888,314.12917547115313,93.581521447474444,87.469999999999999,0.26299999999997681,0.77831455315683795,-0.23221365595207999,0.28038892128904591
20220418193000,422.78536317914359,5.8170850788976285,0.19397692768682434,1,85.908203445996733,0,74.873288784035239,0,0.53907810485808516,1,265.82727354607493,1.6487391520743664,4.3203054492821815,0.70023085185089629,0.91995556122533539,0.51250895409549235,0.40404776440783741,-63.814971149263286,-0.29773577669664664,103.52372738194981,189.27439085360902,226.51310449782224,283.56752780848046,93.578057955839867,85.403333333333336,0.62299999999999045,0.93062516405776929,0.10104553863629917,0.23176134005396878
20220418200000,422.92696399900979,5.9603918794233923,0.17981798788865136,0,43.925299436429214,0,34.918104345971443,0,7.9205533518148630E-002,1,294.47927089813516,1.8403593684518260,4.4756618558021977,0.76202553910204718,0.60897930536510247,0.48307373526847341,0.38884880534240079,-111.26107911967593,-0.17076951032951065,105.26131096817629,192.45124782309242,230.31499090970237,288.32703844790075,93.592426874565987,88.903333333333336,0.40633333333335031,0.69647654941713655,2.5134145100935257E-002,0.19029902214832045
20220418203000,422.70450237548130,6.1075377325778497,0.14979844782484950,0,2.1336542991693981,2,0.54833621662698684,2,-4.3854852433482285E-002,2,324.22408950684274,2.2340894010006540,5.9350288249880343,0.95157176791429299,0.71922383698516834,0.47286530973779595,0.35473087215777738,-1739.2693812476980,-1.0924127225404260E-002,99.491075475739649,181.90141702069758,217.68953790361948,272.52146947504036,93.613260973090277,92.650000000000006,0.17633333333333212,0.45369284202080734,-7.8530418395985180E-002,0.20840095101817027
20220418210000,422.03626151567693,6.1359662577242036,0.32549385204270292,0,49.367533763547229,1,35.462968534908931,0,-0.79118895944729406,2,339.25774864265998,2.1079139373447502,6.3657355949633319,1.0458749224449375,0.91864199445356465,0.55603003933538941,0.52354553720770369,-241.68167902827145,-7.8615806032104801E-002,119.32731414411533,218.16838775032991,261.09183915341919,326.85600033536389,93.619839958767372,88.530000000000001,0.87033333333334895,0.74445815224218792,0.67293357425273825,0.20710014729500748
20220418213000,422.17691749875229,6.0286726326209861,0.42325934432949741,0,43.028179679691981,0,33.296264333961183,0,0.61310963773888461,0,315.04667101855478,3.3502642634489872,9.6256743292474027,1.4733610142671567,1.5054893773860822,0.74529086241662612,0.59682487140697771,-410.83387508434254,-4.6247403518269704E-002,104.82667075249546,191.65658688744091,229.36398472896246,287.13649156011314,93.639470816189231,87.676666666666662,0.76299999999997681,0.79367243509714747,0.33609839291051458,0.34511303439034613
20220418220000,422.51081254184624,6.0238155389122507,0.72789579843252594,0,3.9073771554630987,2,1.1758601796943025,2,2.3048855088807607E-002,1,316.16246980291407,3.7765813993207211,11.256237700936820,1.7457612173953969,1.2520802004723086,0.93555365160661197,0.78096054565342898,-10139.875989146914,-1.8737901745875794E-003,108.36853847150078,198.13225069855366,237.11370040324951,296.83821596960456,93.687365195631557,94.616666666666674,-0.29166666666668561,0.32118318253845246,-0.76772783850333326,0.21426490557684033
20220418223000,422.34820644556379,5.9774389273165331,0.58777882055869224,0,5.6961788590096569,0,-2.5222999196140554,2,-0.14299556861156057,1,318.15049198341359,3.1342088235601722,8.1264589997244929,1.3914471535224773,1.0008502009771105,0.77835586146289226,0.70130585935069734,-5038.8638197632226,-3.7706913065360067E-003,115.19624253863742,210.61547131780389,252.05292722545897,315.54035519786635,93.738033892144102,95.436666666666667,-0.50866666666667015,0.26798741414741928,-0.80778833940291861,5.9617008275963140E-002